When you browse on this site, cookies collect data to enhance your experience and personalize the content and advertising you see.
Visit our Privacy Policy to learn more. By continuing to use the site, you agree to this use of cookies and data.

Météo par heure à Cardiff

Ce jour, 7 Juillet, Mardi

Heure Température Précipitation Vent Pression Humidité
00:00 +10°C° 0 mm 3 m/s 765 mmHg 92%
01:00 +10°C° 0 mm 3 m/s 765 mmHg 92%
02:00 +10°C° 0 mm 3 m/s 765 mmHg 92%
03:00 +11°C° 0 mm 3 m/s 764 mmHg 93%
04:00 +11°C° 0 mm 3 m/s 764 mmHg 92%
05:00 +12°C° 0 mm 4 m/s 764 mmHg 91%
06:00 +13°C° 0 mm 4 m/s 764 mmHg 92%
07:00 +13°C° 0 mm 4 m/s 764 mmHg 90%
08:00 +14°C° 0 mm 5 m/s 764 mmHg 89%
09:00 +14°C° 0 mm 5 m/s 764 mmHg 87%
10:00 +15°C° 0 mm 5 m/s 763 mmHg 83%
11:00 +15°C° 0 mm 6 m/s 763 mmHg 78%
12:00 +15°C° 0 mm 6 m/s 763 mmHg 76%
13:00 +15°C° 0 mm 6 m/s 762 mmHg 78%
14:00 +15°C° 0 mm 7 m/s 762 mmHg 79%
15:00 +15°C° 0 mm 7 m/s 761 mmHg 81%
16:00 +15°C° 0.4 mm 8 m/s 761 mmHg 85%
17:00 +13°C° 0.4 mm 8 m/s 761 mmHg 90%
18:00 +13°C° 0.4 mm 9 m/s 760 mmHg 95%
19:00 +13°C° 0.4 mm 9 m/s 760 mmHg 95%
20:00 +15°C° 0.4 mm 8 m/s 760 mmHg 96%
21:00 +15°C° 0.4 mm 8 m/s 760 mmHg 97%
22:00 +15°C° 0.3 mm 8 m/s 759 mmHg 97%
23:00 +15°C° 0.3 mm 8 m/s 759 mmHg 97%

Demain, 8 Juillet, Mercredi

Heure Température Précipitation Vent Pression Humidité
00:00 +15°C° 0.3 mm 8 m/s 759 mmHg 97%
01:00 +15°C° 0.4 mm 7 m/s 759 mmHg 97%
02:00 +15°C° 0.4 mm 7 m/s 759 mmHg 97%
03:00 +15°C° 0.4 mm 7 m/s 759 mmHg 97%
04:00 +15°C° 0.5 mm 6 m/s 759 mmHg 97%
05:00 +15°C° 0.5 mm 5 m/s 758 mmHg 97%
06:00 +15°C° 0.5 mm 4 m/s 758 mmHg 97%
07:00 +15°C° 0.6 mm 4 m/s 759 mmHg 97%
08:00 +16°C° 0.6 mm 3 m/s 759 mmHg 97%
09:00 +16°C° 0.6 mm 3 m/s 759 mmHg 98%
10:00 +17°C° 0.1 mm 3 m/s 759 mmHg 95%
11:00 +17°C° 0.1 mm 3 m/s 760 mmHg 93%
12:00 +18°C° 0.1 mm 3 m/s 760 mmHg 90%
13:00 +18°C° 0.1 mm 4 m/s 760 mmHg 92%
14:00 +17°C° 0.1 mm 4 m/s 760 mmHg 94%
15:00 +16°C° 0.1 mm 5 m/s 760 mmHg 96%
16:00 +16°C° 0.2 mm 5 m/s 759 mmHg 96%
17:00 +16°C° 0.2 mm 5 m/s 759 mmHg 97%
18:00 +16°C° 0.2 mm 6 m/s 759 mmHg 97%
19:00 +16°C° 0.2 mm 6 m/s 759 mmHg 97%
20:00 +16°C° 0.2 mm 6 m/s 759 mmHg 97%
21:00 +16°C° 0.2 mm 6 m/s 759 mmHg 97%
22:00 +15°C° 0.1 mm 6 m/s 759 mmHg 97%
23:00 +15°C° 0.1 mm 6 m/s 758 mmHg 96%

Après-demain, 9 Juillet, Jeudi

Heure Température Précipitation Vent Pression Humidité
00:00 +15°C° 0.1 mm 6 m/s 758 mmHg 96%
01:00 +15°C° 0.3 mm 6 m/s 758 mmHg 96%
02:00 +15°C° 0.3 mm 6 m/s 758 mmHg 96%
03:00 +15°C° 0.3 mm 6 m/s 757 mmHg 96%
04:00 +15°C° 0.4 mm 6 m/s 757 mmHg 96%
05:00 +15°C° 0.4 mm 6 m/s 757 mmHg 96%
06:00 +16°C° 0.4 mm 6 m/s 756 mmHg 97%
07:00 +16°C° 0.1 mm 7 m/s 756 mmHg 95%
08:00 +16°C° 0.1 mm 7 m/s 756 mmHg 94%
09:00 +16°C° 0.1 mm 7 m/s 756 mmHg 93%
10:00 +16°C° 0.2 mm 7 m/s 756 mmHg 94%
11:00 +16°C° 0.2 mm 7 m/s 756 mmHg 94%
12:00 +16°C° 0.2 mm 7 m/s 756 mmHg 94%
13:00 +16°C° 0.1 mm 7 m/s 756 mmHg 94%
14:00 +16°C° 0.1 mm 7 m/s 756 mmHg 93%
15:00 +16°C° 0.1 mm 7 m/s 756 mmHg 93%
16:00 +16°C° 0.2 mm 6 m/s 756 mmHg 94%
17:00 +16°C° 0.2 mm 6 m/s 756 mmHg 95%
18:00 +16°C° 0.2 mm 5 m/s 756 mmHg 95%
19:00 +15°C° 0 mm 5 m/s 756 mmHg 94%
20:00 +14°C° 0 mm 5 m/s 756 mmHg 93%
21:00 +14°C° 0 mm 5 m/s 757 mmHg 92%
22:00 +13°C° 0 mm 5 m/s 757 mmHg 93%
23:00 +12°C° 0 mm 5 m/s 758 mmHg 93%

10 Juillet, Vendredi

Heure Température Précipitation Vent Pression Humidité
00:00 +10°C° 0 mm 5 m/s 758 mmHg 93%
01:00 +10°C° 0 mm 5 m/s 758 mmHg 92%
02:00 +9°C° 0 mm 6 m/s 759 mmHg 91%
03:00 +8°C° 0 mm 6 m/s 759 mmHg 90%
04:00 +9°C° 0 mm 6 m/s 759 mmHg 89%
05:00 +9°C° 0 mm 6 m/s 760 mmHg 87%
06:00 +9°C° 0 mm 6 m/s 760 mmHg 86%
07:00 +10°C° 0 mm 7 m/s 761 mmHg 80%
08:00 +12°C° 0 mm 7 m/s 761 mmHg 75%
09:00 +13°C° 0 mm 8 m/s 762 mmHg 69%
10:00 +15°C° 0 mm 8 m/s 762 mmHg 67%
11:00 +15°C° 0 mm 8 m/s 762 mmHg 65%
12:00 +16°C° 0 mm 8 m/s 763 mmHg 64%
13:00 +16°C° 0 mm 7 m/s 763 mmHg 64%
14:00 +16°C° 0 mm 7 m/s 763 mmHg 65%
15:00 +16°C° 0 mm 7 m/s 763 mmHg 66%
16:00 +16°C° 0 mm 7 m/s 763 mmHg 67%
17:00 +16°C° 0 mm 7 m/s 764 mmHg 68%
18:00 +15°C° 0 mm 7 m/s 764 mmHg 70%
19:00 +14°C° 0 mm 6 m/s 764 mmHg 75%
20:00 +12°C° 0 mm 5 m/s 765 mmHg 80%
21:00 +10°C° 0 mm 4 m/s 765 mmHg 84%
22:00 +10°C° 0 mm 4 m/s 766 mmHg 86%
23:00 +8°C° 0 mm 4 m/s 766 mmHg 88%

11 Juillet, Samedi

Heure Température Précipitation Vent Pression Humidité
00:00 +9°C° 0 mm 3 m/s 766 mmHg 89%
01:00 +9°C° 0 mm 3 m/s 766 mmHg 90%
02:00 +9°C° 0 mm 3 m/s 767 mmHg 90%
03:00 +9°C° 0 mm 3 m/s 767 mmHg 91%
04:00 +10°C° 0 mm 2 m/s 767 mmHg 89%
05:00 +12°C° 0 mm 2 m/s 767 mmHg 88%
06:00 +12°C° 0 mm 2 m/s 767 mmHg 87%
07:00 +14°C° 0 mm 2 m/s 768 mmHg 80%
08:00 +14°C° 0 mm 3 m/s 768 mmHg 73%
09:00 +17°C° 0 mm 3 m/s 768 mmHg 66%
10:00 +18°C° 0 mm 3 m/s 768 mmHg 64%
11:00 +18°C° 0 mm 3 m/s 768 mmHg 62%
12:00 +19°C° 0 mm 3 m/s 768 mmHg 60%
13:00 +19°C° 0 mm 3 m/s 768 mmHg 61%
14:00 +19°C° 0 mm 3 m/s 768 mmHg 61%
15:00 +19°C° 0 mm 3 m/s 768 mmHg 61%
16:00 +19°C° 0 mm 4 m/s 768 mmHg 65%
17:00 +18°C° 0 mm 4 m/s 768 mmHg 69%
18:00 +18°C° 0 mm 4 m/s 768 mmHg 73%
19:00 +16°C° 0 mm 3 m/s 768 mmHg 77%
20:00 +13°C° 0 mm 3 m/s 768 mmHg 81%
21:00 +13°C° 0 mm 2 m/s 769 mmHg 85%
22:00 +12°C° 0 mm 2 m/s 769 mmHg 85%
23:00 +12°C° 0 mm 2 m/s 769 mmHg 84%

12 Juillet, Dimanche

Heure Température Précipitation Vent Pression Humidité
00:00 +11°C° 0 mm 1 m/s 769 mmHg 83%
01:00 +11°C° 0 mm 1 m/s 769 mmHg 84%
02:00 +11°C° 0 mm 1 m/s 769 mmHg 86%
03:00 +10°C° 0 mm 1 m/s 768 mmHg 87%
04:00 +11°C° 0 mm 1 m/s 769 mmHg 86%
05:00 +12°C° 0 mm 1 m/s 769 mmHg 84%
06:00 +13°C° 0 mm 1 m/s 769 mmHg 83%
07:00 +14°C° 0 mm 1 m/s 769 mmHg 79%
08:00 +16°C° 0 mm 1 m/s 769 mmHg 75%
09:00 +18°C° 0 mm 1 m/s 769 mmHg 71%
10:00 +19°C° 0 mm 1 m/s 769 mmHg 67%
11:00 +20°C° 0 mm 1 m/s 769 mmHg 64%
12:00 +21°C° 0 mm 1 m/s 769 mmHg 60%
13:00 +21°C° 0 mm 1 m/s 769 mmHg 59%
14:00 +21°C° 0 mm 2 m/s 768 mmHg 58%
15:00 +21°C° 0 mm 2 m/s 768 mmHg 57%
16:00 +21°C° 0 mm 2 m/s 768 mmHg 61%
17:00 +20°C° 0 mm 2 m/s 768 mmHg 64%
18:00 +20°C° 0 mm 2 m/s 768 mmHg 68%
19:00 +18°C° 0 mm 2 m/s 768 mmHg 72%
20:00 +16°C° 0 mm 2 m/s 768 mmHg 76%
21:00 +14°C° 0 mm 2 m/s 768 mmHg 79%
22:00 +14°C° 0 mm 2 m/s 768 mmHg 81%
23:00 +14°C° 0 mm 2 m/s 768 mmHg 82%
Voir plus